Погода в Нейсе

Ирландия     53°13′10″N   6°39′40″W
темп.,
°C
ветер,
м/с
пор.,
м/с
влажн.,
%
обл.,
%
осадки,
мм/ч
давл.,
гПа
погр.,
м
10 мая, пн
пн1001:00+10ю61180100 0.0 9871025
04:00+8ю5109029 0.0 987465
07:00+9ю61079100 0.0 987836
10:00+11ю61080100 0.1 9881112
13:00+11ю7118772 1.3 9881127
16:00+13ю7982100 1.9 9881268
19:00+10юз71194100 6.0 991761
22:00+8ююз71392100 1.5 995880
11 мая, вт
вт1101:00+6ююз71490100 1.5 998671
04:00+5ю61389100 0.0 1000597
07:00+6ю511840 0.0 1001603
10:00+10ююв58635 0.0 10021355
13:00+12ююв466288 0.1 10021445
16:00+12юв446541 0.9 10021373
19:00+11ююв127766 2.1 1002205
22:00+6юв118864 0.3 100415
12 мая, ср
ср1201:00+5ююз249453 0.3 1004104
04:00+3всв1193100 0.0 100410
07:00+5св2394100 0.0 1004103
10:00+9всв1282100 0.2 1005365
13:00+8с1192100 1.6 1006181
16:00+9ююв2593100 0.9 1006402
19:00+9ююв369392 1.7 1007400
22:00+8юв129595 0.5 100849
13 мая, чт
чт1301:00+8ююв129497 0.5 100940
04:00+7ю119399 0.0 100921
07:00+7юв1191100 0.0 100951
10:00+10ссв2378100 0.0 1010754
13:00+12св5571100 0.1 10091241
16:00+11всв5573100 0.1 1010904
19:00+9св4590100 0.2 1011363
22:00+8св4898100 0.9 1012352
14 мая, пт
пт1401:00+8с3998100 3.0 1012444
04:00+7ссв4998100 0.1 1012470
07:00+8св4898100 0.1 1013443
10:00+11всв4679100 0.0 1014909
13:00+13св446582 0.1 10141375
16:00+14св436333 0.2 10131277
19:00+13юв237676 0.5 1012577
22:00+7ю2392100 0.3 101344